This demonstration page uses our WeatherBlox Daily Observations layout. Learn more.

Left ArrowRight Arrow

Hourly Observations for October 12, 2021

Temp ( °F °C ) Dew Point ( °F °C ) Humidity (%) Winds ( mph kmh ) Pressure ( in mb ) Visibility ( mi km ) Precip ( " mm )
12:51 am 00:51 Clear 69 20.6 39 3.9 33 33 S 14 22 29.49 999 10 16 0.00 0.00
1:51 am 01:51 Mostly Clear 69 20.6 35 1.7 29 29 WSW 14 22 29.49 999 10 16 0.00 0.00
2:51 am 02:51 Clear 68 20 33 0.6 27 27 SSW 13 20 29.51 999 10 16 0.00 0.00
3:51 am 03:51 Partly Cloudy 65 18.3 36 2.2 34 34 WSW 17 28 29.53 1000 10 16 0.00 0.00
4:20 am 04:20 Mostly Cloudy with Haze 58 14.4 37 2.8 46 46 WNW 22 35 29.61 1003 6 10 0.00 0.00
4:27 am 04:27 Cloudy with Haze 58 14.4 37 2.8 46 46 NW 26 43 29.61 1003 6 10 0.00 0.00
4:51 am 04:51 Cloudy with Haze 56 13.3 37 2.8 49 49 NW 25 41 29.57 1001 6 10 0.00 0.00
5:15 am 05:15 Cloudy with Haze 55 12.8 36 2.2 49 49 NW 18 30 29.65 1004 6 10 0.00 0.00
5:51 am 05:51 Cloudy with Haze 55 12.8 35 1.7 47 47 NW 22 35 29.61 1003 6 10 0.00 0.00
6:51 am 06:51 Cloudy 54 12.2 33 0.6 45 45 NW 20 31 29.64 1004 7 11 0.00 0.00
7:28 am 07:28 Mostly Cloudy 53 11.7 32 0 45 45 NW 24 39 29.71 1006 8 13 0.00 0.00
7:51 am 07:51 Mostly Cloudy 54 12.2 31 -0.6 42 42 NW 33 54 29.65 1004 9 14 0.00 0.00
8:51 am 08:51 Mostly Sunny 58 14.4 28 -2.2 32 32 NW 23 37 29.66 1004 10 16 0.00 0.00
9:51 am 09:51 Sunny 59 15 29 -1.7 32 32 NW 23 37 29.68 1005 10 16 0.00 0.00
10:51 am 10:51 Sunny 62 16.7 29 -1.7 29 29 NW 26 43 29.68 1005 10 16 0.00 0.00
11:51 am 11:51 Partly Cloudy 62 16.7 28 -2.2 28 28 WNW 21 33 29.68 1005 10 16 0.00 0.00
12:51 pm 12:51 Partly Cloudy 64 17.8 27 -2.8 25 25 NW 23 37 29.68 1005 10 16 0.00 0.00
1:51 pm 13:51 Sunny 64 17.8 27 -2.8 25 25 NW 24 39 29.68 1005 10 16 0.00 0.00
2:51 pm 14:51 Sunny 64 17.8 27 -2.8 25 25 WNW 24 39 29.69 1006 10 16 0.00 0.00
3:51 pm 15:51 Sunny 63 17.2 28 -2.2 27 27 NW 21 33 29.71 1006 10 16 0.00 0.00
4:51 pm 16:51 Sunny 61 16.1 27 -2.8 27 27 NW 25 41 29.74 1007 10 16 0.00 0.00
5:51 pm 17:51 Clear 58 14.4 22 -5.6 25 25 NW 16 26 29.78 1008 10 16 0.00 0.00
6:51 pm 18:51 Clear 56 13.3 20 -6.7 24 24 NW 12 19 29.80 1009 10 16 0.00 0.00
7:51 pm 19:51 Clear 54 12.2 20 -6.7 26 26 NW 15 24 29.83 1010 10 16 0.00 0.00
8:51 pm 20:51 Clear 53 11.7 20 -6.7 27 27 NNW 3 6 29.84 1011 10 16 0.00 0.00
9:51 pm 21:51 Clear 52 11.1 20 -6.7 28 28 WNW 6 9 29.85 1011 10 16 0.00 0.00
10:51 pm 22:51 Clear 47 8.3 22 -5.6 37 37 W 5 7 29.85 1011 10 16 0.00 0.00
11:51 pm 23:51 Clear 45 7.2 23 -5 42 42 NNW 8 13 29.86 1011 10 16 0.00 0.00

Powered by AerisWeather